Lid_Strength_Index
4 4 4 3 2 1 -0 -1 -1 -1 -1 -1 -1 -1 -1 -1 -0 4 6 5 5 9 8 8 8 8 8 11 12 9 9 9 10 13 14 15 17 17 18 15 14 14 15 16 18 18 18 16 14 15 16 17 17 18
4 4 4 4 3 3 1 1 0 -1 -1 -1 -1 -1 -1 -1 -1 2 7 5 4 8 8 7 7 6 7 8 9 8 10 12 9 12 13 15 18 19 18 21 13 16 13 14 14 15 19 19 19 18 17 18 19 19
4 4 4 4 4 4 3 2 2 1 0 -1 -1 -1 -1 -1 -1 3 7 6 8 10 9 9 9 8 7 8 7 9 11 8 9 9 14 14 16 16 20 18 15 13 13 14 15 18 20 20 20 19 19 19 19 20
4 5 4 4 4 4 4 4 3 3 2 1 -0 -0 -1 -1 0 3 6 7 8 9 13 12 7 9 8 9 6 6 8 8 9 10 12 15 15 13 15 14 13 15 13 16 19 21 20 20 20 20 20 20 21 21
4 5 5 5 5 4 4 4 4 4 3 1 1 1 -0 1 2 5 6 7 7 7 12 13 10 10 10 9 7 7 8 10 13 14 17 16 14 13 14 14 16 18 15 15 15 17 18 19 19 20 21 21 21 22
4 5 5 5 5 5 4 4 4 4 4 2 2 1 1 2 3 5 8 6 7 6 10 14 12 13 12 11 10 10 10 11 12 13 15 14 14 14 15 16 21 21 21 22 21 21 21 21 21 20 22 22 22 22
5 5 5 5 5 5 4 3 4 4 4 2 2 2 3 4 7 9 9 9 7 7 11 15 16 13 14 12 11 12 11 12 12 14 16 15 16 16 19 19 21 22 22 22 21 21 23 22 23 22 22 23 23 23
5 5 6 5 5 5 4 4 4 5 5 3 2 3 4 5 7 12 9 7 7 10 12 19 20 17 15 15 14 12 13 12 14 15 16 17 18 18 17 23 23 23 23 23 24 24 22 23 24 24 24 24 26 26
5 5 6 5 5 5 5 4 4 5 4 4 3 6 10 14 14 12 9 11 14 13 18 24 23 23 17 17 15 13 13 16 15 17 18 17 20 18 21 24 24 24 23 25 27 28 28 28 28 29 28 28 27 26
5 5 6 6 5 5 5 5 5 4 3 3 11 16 17 16 9 9 15 16 19 23 23 27 27 24 20 18 17 16 16 18 18 20 18 20 22 26 25 25 23 25 27 27 29 32 33 33 31 32 33 34 32 31
6 6 6 7 6 5 5 5 6 5 8 16 20 20 16 11 16 21 22 21 24 23 26 27 25 24 21 21 23 19 23 23 24 24 22 29 25 23 27 28 28 28 29 34 32 35 34 30 31 33 35 36 36 36
6 6 6 7 6 6 6 6 7 15 20 16 16 17 21 22 24 22 30 27 25 24 28 27 26 25 25 21 23 23 23 23 24 26 24 27 23 28 29 29 30 30 31 34 36 33 36 31 32 32 34 35 36 35
6 6 7 8 7 6 6 7 8 9 12 20 21 23 21 24 22 24 25 27 28 34 33 32 27 26 26 23 27 25 25 27 27 27 26 24 25 28 31 33 34 37 35 33 35 36 36 36 38 35 35 36 36 36
7 7 8 9 8 7 7 8 10 15 20 22 24 22 26 28 29 31 30 31 30 31 34 33 32 28 32 26 28 26 26 28 31 30 27 26 27 28 30 33 33 33 36 34 35 36 35 35 34 34 33 34 34 34
7 7 11 10 8 8 9 10 13 24 24 26 25 23 30 37 40 42 45 39 34 34 32 32 32 24 32 29 30 30 28 29 27 24 25 25 28 27 29 31 32 32 34 35 36 35 34 31 31 31 32 33 33 37
7 13 15 8 9 9 11 19 24 26 30 29 33 32 40 36 36 41 44 39 36 30 33 32 34 31 32 31 29 29 29 27 24 27 26 31 33 31 31 31 30 32 32 35 34 31 30 31 32 30 34 36 37 39
10 20 9 9 9 12 14 24 25 31 29 29 30 44 36 36 29 35 36 34 31 33 30 35 29 28 30 32 30 32 27 25 26 29 33 32 29 28 31 31 32 32 33 33 32 32 31 33 38 37 34 36 41 41
18 15 10 10 13 20 28 27 29 28 31 34 29 33 36 37 35 39 40 38 33 36 35 29 29 32 31 30 30 27 28 32 36 34 32 34 35 35 30 29 31 30 31 32 33 31 30 34 36 33 38 40 41 41
13 14 11 12 16 27 26 27 26 31 35 37 36 35 37 38 37 37 37 37 38 37 32 35 32 31 28 29 27 31 35 31 26 29 32 36 34 32 31 34 31 31 30 31 31 31 33 35 34 35 36 38 35 37
11 12 12 14 17 25 27 29 29 30 34 32 36 34 34 35 37 39 39 37 34 34 30 30 27 28 27 29 29 29 30 29 30 31 31 32 35 35 31 30 29 30 34 39 39 35 37 36 37 36 37 35 36 33
16 17 15 22 25 27 28 31 32 33 36 34 36 33 35 34 36 36 35 36 32 29 27 26 28 30 37 38 39 38 33 30 28 26 26 30 34 33 36 36 36 36 33 33 31 33 32 29 30 31 33 33 34 36
19 15 23 20 25 28 29 30 28 31 32 37 33 32 32 33 34 34 35 33 29 25 27 29 31 33 33 31 32 34 37 38 39 35 33 31 33 33 35 34 35 34 33 31 31 28 28 28 31 34 33 33 36 39
17 19 23 25 24 27 30 31 29 30 27 31 32 29 30 32 32 32 31 28 25 26 31 32 34 36 33 36 37 35 36 33 35 37 37 36 38 38 35 32 30 30 31 30 30 30 29 28 28 29 30 31 36 38
18 23 24 26 28 30 34 31 27 27 27 29 28 28 32 33 32 31 29 26 23 29 29 29 30 29 31 33 32 30 31 35 38 39 41 35 35 35 34 31 31 30 29 29 26 27 27 27 26 27 29 31 38 39
19 23 27 29 33 31 31 32 29 27 27 26 25 28 31 34 29 30 27 23 24 26 26 29 29 28 27 30 31 31 40 35 33 32 36 33 37 36 36 37 35 30 28 28 27 25 26 27 28 28 29 34 36 36
22 25 29 32 32 27 27 30 30 27 26 26 26 32 31 28 27 24 25 24 24 25 26 27 26 28 30 29 30 33 34 40 37 34 34 32 30 29 29 28 27 27 26 24 23 24 24 26 27 29 32 34 34 38
23 25 32 31 26 25 26 29 28 27 27 26 29 29 26 23 23 23 25 25 25 25 26 26 26 26 27 33 36 39 42 39 34 33 37 39 35 31 29 28 25 24 26 24 22 23 24 25 27 30 31 37 38 36
25 32 27 28 24 24 22 23 24 25 25 27 25 25 22 21 22 22 24 27 29 29 31 34 34 36 37 38 39 40 41 43 40 39 38 36 37 35 32 30 29 21 27 26 24 24 26 27 29 32 35 34 34 38
29 29 25 26 26 24 23 23 22 25 28 25 22 22 20 21 24 25 27 28 31 29 29 33 35 43 42 44 45 45 43 36 33 33 33 32 28 27 30 28 27 27 27 26 22 25 29 32 34 35 35 35 34 39
26 26 23 26 25 24 29 29 27 29 29 30 30 27 25 24 25 29 30 31 31 31 36 40 43 39 40 39 39 38 43 42 38 32 32 30 28 28 28 27 28 28 27 29 30 33 26 30 29 34 36 38 38 38
28 26 25 25 26 29 30 30 30 30 29 30 31 29 26 29 29 30 32 34 37 41 38 37 40 47 40 41 40 36 33 36 36 34 34 31 30 31 30 30 29 30 34 35 37 37 36 37 39 39 39 36 36 34
31 28 25 25 27 30 29 29 29 28 29 29 29 33 31 31 29 29 34 38 38 37 36 38 36 33 36 38 40 39 31 34 34 30 30 31 31 31 31 31 34 36 38 37 39 38 38 39 39 38 36 36 34 33
28 27 25 24 25 26 29 29 29 29 31 32 33 37 38 37 29 30 35 39 35 34 34 33 34 38 36 34 34 34 30 33 32 23 23 22 25 28 35 38 39 39 37 37 37 37 37 38 37 36 35 35 34 33